Wind_Speed
11 11 11 11 12 12 12 13 13 13 13 13 14 14 14 14 14 14 14 14 14 14 14 14 14 14 14 14 13 13 13 13 13 12 12 12 12 12 12 12 12 12 12 12
12 13 12 13 13 13 13 13 14 14 14 14 14 14 14 14 15 15 15 15 15 15 15 15 15 15 15 14 14 14 14 14 13 13 13 13 13 13 13 13 13 13 13 13
13 13 13 13 13 13 14 14 14 14 13 13 14 14 15 14 15 15 15 15 16 16 16 15 15 15 15 15 15 14 14 14 14 14 14 14 14 14 13 14 14 14 13 13
14 14 14 14 14 14 13 13 13 13 13 13 14 15 15 14 15 15 15 16 16 16 16 16 16 16 15 15 15 14 14 14 15 15 15 15 15 14 14 14 14 14 14 14
15 14 14 15 14 14 13 13 13 14 14 14 14 16 15 15 15 15 16 17 17 17 17 17 17 16 16 15 15 15 15 16 16 16 16 16 16 15 15 14 14 14 14 14
15 15 15 15 14 14 13 13 13 14 15 16 14 15 16 17 17 17 17 17 17 17 17 17 17 16 16 16 16 16 16 17 17 17 17 16 16 16 16 16 15 14 14 15
15 15 16 15 15 15 15 15 14 14 15 15 14 16 17 18 18 18 18 17 17 17 17 17 17 17 16 16 17 17 17 17 17 17 17 17 17 16 17 17 16 15 15 15
15 16 16 16 16 15 16 15 14 13 14 15 14 16 17 17 17 17 18 17 18 18 18 18 18 17 17 17 17 17 17 17 18 18 18 18 18 18 17 18 18 17 16 16
16 16 16 16 16 16 16 16 15 14 14 15 16 17 17 17 18 17 17 17 18 18 18 18 18 18 18 17 17 18 17 18 18 18 19 19 19 19 19 19 19 19 19 18
17 17 16 16 16 16 17 16 15 15 15 15 16 17 17 17 17 18 19 19 18 18 18 18 19 18 18 18 18 18 19 19 19 19 19 20 19 19 20 20 20 20 20 19
18 18 17 17 17 17 16 16 16 16 15 14 15 16 17 18 18 19 19 20 20 19 19 19 19 19 19 19 19 19 20 20 21 20 20 21 21 21 21 21 22 21 21 21
18 18 18 17 17 18 17 15 16 16 16 16 16 17 18 19 19 20 20 21 21 20 20 20 20 20 21 21 20 20 21 21 22 22 22 22 22 22 22 22 22 22 22 22
18 18 18 17 17 17 19 18 18 18 18 17 18 20 20 21 21 21 21 22 22 22 22 22 22 22 22 22 21 22 22 22 23 23 23 23 23 23 23 23 23 23 23 23
20 19 18 18 18 18 19 19 20 20 19 19 19 20 22 22 22 23 22 22 23 23 23 23 22 23 22 22 22 22 23 24 24 24 24 24 23 23 23 24 24 25 24 24
20 20 19 19 19 19 19 20 20 20 20 20 20 21 23 23 24 24 24 23 23 24 24 24 24 24 24 25 24 24 24 24 25 25 25 25 25 25 24 25 25 25 25 24
21 21 20 20 21 21 21 21 21 21 21 21 22 23 24 24 24 24 24 24 24 24 25 25 26 26 26 26 26 26 25 25 26 26 26 26 26 26 26 26 26 25 26 26
21 21 21 21 21 22 23 22 22 22 22 22 23 23 24 24 25 25 25 26 26 26 26 26 27 27 27 27 27 27 27 27 27 27 27 27 27 27 28 28 27 27 27 27
20 20 20 21 21 23 22 22 22 23 23 24 25 25 25 26 25 26 27 27 27 27 27 27 27 28 28 28 28 28 28 28 28 28 28 29 29 28 28 28 28 28 28 27
21 21 21 21 22 23 21 23 23 24 25 25 26 26 27 28 27 27 28 28 27 28 27 27 27 28 28 29 29 29 29 29 29 29 29 30 29 30 30 29 29 29 29 29
21 21 22 22 23 23 22 24 24 25 26 25 26 26 27 27 27 26 27 27 27 27 27 27 27 28 28 29 29 29 29 29 29 29 29 30 30 30 30 30 30 30 30 30
22 23 24 24 24 24 23 25 25 26 26 26 26 26 27 27 27 26 26 26 26 26 26 26 27 27 28 28 28 28 29 29 28 28 29 29 29 29 30 31 31 31 31 31
22 24 25 25 26 25 25 26 26 26 26 26 27 27 27 27 27 27 27 26 27 26 26 27 27 27 27 27 28 28 29 29 28 27 28 29 29 29 29 31 32 32 32 32
24 24 25 25 26 26 26 26 26 26 26 26 26 27 26 26 26 27 27 28 27 26 26 27 27 27 26 26 27 28 28 29 28 27 28 28 28 29 30 31 31 32 32 32
24 24 24 24 25 27 28 28 27 27 27 26 26 26 27 26 26 26 27 27 28 27 27 27 27 27 27 26 26 26 26 27 28 28 28 29 29 29 30 30 31 32 32 32
26 25 25 26 27 27 27 27 27 28 27 27 27 27 27 27 27 27 27 27 28 28 27 27 27 27 27 27 26 26 26 27 27 28 28 28 29 29 30 30 30 30 30 30
27 27 27 27 27 28 28 28 28 29 28 27 27 27 27 27 27 27 27 27 28 28 27 27 26 27 27 27 27 27 27 27 27 28 29 29 28 29 29 29 29 29 29 29
Wind_Direction
258 258 257 259 261 263 264 264 267 271 274 273 273 274 274 276 280 281 281 281 281 281 283 284 284 284 285 288 289 289 288 288 288 288 288 288 290 291 292 292 293 295 293 293
258 258 259 260 262 263 263 264 270 272 272 273 274 275 273 275 279 280 279 279 279 279 280 281 283 282 282 286 287 287 287 286 285 286 287 287 288 289 289 289 291 291 292 293
263 262 261 261 261 262 263 263 267 270 270 272 275 274 275 275 277 278 277 278 277 276 278 280 280 281 282 283 286 286 285 282 285 286 288 289 290 288 286 288 290 291 290 291
263 262 261 260 259 260 264 265 265 268 270 269 273 277 279 278 277 278 280 278 276 279 280 279 278 280 282 283 281 281 283 283 284 286 288 288 288 289 288 288 288 289 291 293
262 260 260 260 259 260 265 266 264 264 268 267 268 274 280 279 278 278 279 280 280 281 281 280 278 278 280 280 279 279 280 281 284 284 285 286 286 286 286 285 285 288 291 292
261 258 258 258 258 258 260 264 266 266 267 267 270 274 278 280 281 282 282 281 280 278 278 279 278 278 277 278 277 279 280 282 283 284 285 285 284 284 283 284 283 284 288 290
262 259 258 256 256 256 258 262 265 267 269 275 276 274 277 279 281 280 280 280 278 277 277 276 276 276 277 277 277 277 279 280 281 284 285 285 283 284 283 283 283 284 287 288
264 260 258 258 258 258 260 262 263 266 272 275 270 269 274 278 277 278 280 281 279 277 276 275 276 277 278 278 278 277 278 279 281 284 285 284 282 282 281 281 281 283 286 287
264 264 260 259 258 258 258 259 261 260 265 267 268 272 272 272 272 275 278 280 281 279 277 277 275 276 278 278 277 276 276 277 279 282 283 284 283 280 280 282 281 283 284 286
266 265 262 261 259 258 258 259 257 258 261 265 270 272 274 273 274 276 276 279 280 279 279 276 276 275 275 276 276 276 276 278 280 282 283 284 283 281 280 282 282 283 282 284
267 265 263 261 259 259 260 257 258 259 261 263 268 271 273 273 274 273 274 276 278 278 277 275 276 274 273 274 276 276 277 277 278 280 282 283 283 282 280 280 280 281 282 282
266 264 262 260 258 259 260 262 261 264 264 262 265 271 272 272 273 273 273 275 277 277 277 275 275 276 274 274 274 275 276 277 277 279 281 284 285 283 280 281 282 281 279 281
264 263 262 257 256 259 260 261 262 264 266 265 264 268 272 273 274 274 274 275 275 275 276 275 274 275 274 275 276 276 277 277 277 277 279 281 283 284 283 281 281 281 280 279
262 262 260 260 261 264 264 264 263 263 266 269 267 268 269 272 274 274 275 274 274 275 276 277 276 276 275 274 276 276 277 277 276 277 277 278 279 281 282 282 281 281 281 280
261 262 260 259 260 265 267 264 263 264 267 270 270 270 271 274 274 275 274 275 274 276 276 277 276 277 277 276 275 276 277 277 277 276 276 276 278 279 280 280 281 281 282 282
260 261 260 261 262 263 264 264 264 267 269 271 272 272 274 277 277 277 277 276 275 276 276 276 277 278 277 277 276 277 278 277 277 276 276 276 276 277 278 279 280 281 281 282
258 260 261 262 263 263 265 268 268 270 273 274 274 274 275 276 278 278 279 278 277 277 276 276 277 277 277 277 277 277 278 277 277 276 276 276 276 276 276 277 279 280 281 283
256 259 262 265 265 267 271 272 270 271 273 275 275 275 276 278 280 281 281 280 279 277 277 277 277 276 277 277 277 279 279 278 277 276 275 275 276 275 276 277 279 280 281 283
257 259 262 265 268 270 272 272 271 272 274 275 277 278 277 277 280 281 282 282 281 280 278 277 277 276 277 278 278 279 279 279 277 274 274 274 274 274 276 277 278 280 280 282
260 262 264 267 269 271 273 274 274 275 276 278 280 281 280 279 279 280 281 282 282 280 280 279 278 277 276 277 278 279 279 278 276 274 274 275 275 275 276 277 278 279 280 282
262 263 265 268 269 272 273 275 274 274 278 280 281 281 280 279 280 281 283 283 283 283 282 283 282 282 281 279 279 279 278 277 277 276 275 275 275 274 276 277 279 279 280 282
265 267 267 268 270 271 273 276 274 275 278 280 281 281 280 280 280 281 281 282 282 283 284 284 283 284 283 281 280 279 278 276 276 276 275 276 276 276 278 278 279 280 281 281
266 267 270 271 272 272 272 274 276 276 277 278 281 282 281 279 280 281 282 282 283 284 284 285 284 284 283 282 282 282 279 277 275 277 277 279 280 279 279 279 280 281 282 283
264 267 269 270 272 272 273 275 276 277 279 279 280 281 281 281 282 283 284 284 285 285 285 284 283 285 285 284 284 284 280 279 277 279 279 280 282 282 282 282 283 283 284 285
262 265 268 269 270 270 272 275 276 277 278 279 279 280 280 282 283 283 284 284 285 286 285 284 284 286 286 285 285 284 282 280 279 279 280 282 282 282 282 283 284 284 286 288
262 264 267 270 271 273 275 277 277 277 277 278 279 279 279 281 282 283 283 284 285 286 285 285 285 286 286 285 285 284 282 280 280 280 281 281 281 282 283 284 284 284 286 288
Height
5844 5846 5846 5847 5847 5848 5848 5849 5849 5849 5849 5850 5850 5850 5851 5851 5851 5851 5851 5851 5851 5851 5851 5850 5850 5849 5849 5849 5848 5848 5847 5847 5847 5846 5845 5845 5844 5843 5842 5842 5841 5840 5840 5839
5842 5843 5844 5844 5844 5845 5845 5846 5846 5846 5846 5847 5847 5847 5847 5848 5848 5848 5848 5848 5848 5848 5847 5847 5847 5847 5846 5846 5846 5845 5844 5844 5844 5843 5843 5842 5841 5841 5840 5839 5839 5838 5837 5837
5839 5840 5840 5841 5841 5842 5842 5843 5843 5843 5843 5843 5844 5844 5844 5844 5844 5844 5844 5844 5844 5844 5844 5844 5844 5843 5843 5843 5842 5842 5841 5841 5841 5840 5840 5839 5838 5838 5837 5836 5836 5835 5834 5834
5836 5836 5837 5838 5838 5838 5838 5839 5839 5840 5840 5840 5841 5841 5841 5841 5841 5841 5840 5840 5840 5840 5840 5840 5840 5840 5840 5839 5839 5839 5838 5838 5838 5837 5837 5836 5835 5835 5834 5833 5833 5832 5831 5830
5832 5833 5833 5834 5835 5835 5835 5836 5836 5836 5837 5837 5838 5837 5838 5837 5837 5838 5837 5837 5837 5836 5836 5836 5836 5836 5836 5835 5835 5835 5835 5835 5834 5834 5833 5832 5831 5831 5830 5830 5829 5829 5828 5827
5829 5829 5829 5830 5831 5831 5832 5832 5832 5833 5833 5834 5835 5834 5834 5833 5833 5833 5833 5833 5833 5832 5832 5832 5832 5832 5831 5831 5831 5831 5831 5831 5830 5830 5829 5828 5827 5826 5826 5826 5826 5825 5824 5823
5825 5825 5825 5826 5827 5828 5828 5829 5829 5829 5829 5830 5831 5830 5831 5829 5829 5829 5829 5829 5828 5828 5828 5828 5827 5827 5827 5827 5827 5827 5827 5827 5826 5826 5825 5824 5823 5822 5822 5822 5822 5821 5820 5820
5821 5822 5822 5822 5823 5823 5824 5825 5826 5826 5827 5827 5827 5826 5827 5826 5825 5825 5825 5824 5824 5824 5823 5823 5823 5823 5822 5822 5822 5822 5822 5822 5822 5821 5821 5820 5819 5818 5818 5817 5817 5817 5816 5815
5817 5817 5818 5817 5818 5819 5819 5820 5821 5821 5822 5822 5823 5823 5823 5822 5821 5821 5821 5820 5820 5819 5819 5819 5818 5818 5818 5818 5818 5818 5817 5817 5817 5816 5816 5815 5814 5814 5813 5813 5812 5812 5812 5811
5812 5812 5813 5813 5813 5814 5815 5816 5817 5816 5817 5817 5819 5819 5818 5817 5817 5817 5816 5815 5815 5814 5814 5814 5814 5813 5813 5813 5813 5813 5812 5812 5812 5811 5811 5810 5809 5809 5808 5808 5807 5807 5807 5806
5807 5807 5808 5808 5808 5809 5810 5811 5811 5811 5812 5813 5813 5816 5813 5812 5812 5812 5811 5810 5810 5809 5809 5809 5808 5808 5808 5808 5807 5807 5807 5807 5806 5806 5805 5804 5804 5803 5803 5803 5802 5802 5801 5800
5802 5802 5802 5803 5804 5804 5805 5806 5806 5807 5808 5808 5808 5812 5808 5807 5807 5806 5806 5805 5804 5804 5803 5803 5803 5802 5802 5802 5802 5802 5801 5801 5801 5800 5800 5799 5799 5798 5797 5797 5796 5796 5795 5795
5797 5797 5798 5798 5801 5800 5800 5801 5801 5802 5803 5803 5804 5806 5803 5802 5801 5800 5800 5799 5799 5798 5798 5798 5797 5797 5796 5796 5796 5796 5795 5795 5794 5794 5794 5793 5793 5792 5791 5791 5790 5790 5789 5789
5791 5792 5794 5795 5795 5795 5795 5796 5796 5797 5797 5798 5798 5798 5797 5796 5795 5794 5794 5794 5793 5792 5792 5792 5791 5791 5790 5790 5789 5789 5789 5788 5788 5787 5787 5787 5786 5786 5785 5785 5784 5783 5783 5782
5786 5787 5788 5789 5790 5790 5790 5791 5791 5791 5792 5792 5792 5792 5791 5790 5789 5789 5788 5788 5787 5787 5786 5786 5785 5784 5784 5783 5782 5782 5782 5781 5781 5780 5780 5780 5779 5779 5778 5778 5777 5777 5776 5775
5780 5782 5783 5784 5784 5784 5785 5785 5786 5786 5786 5786 5786 5786 5784 5784 5783 5782 5782 5781 5781 5780 5779 5779 5778 5777 5776 5775 5775 5775 5774 5774 5773 5773 5773 5772 5772 5772 5771 5770 5770 5769 5769 5768
5775 5776 5777 5778 5778 5778 5779 5780 5780 5780 5780 5780 5780 5780 5778 5778 5777 5776 5775 5774 5774 5773 5772 5771 5770 5769 5768 5767 5767 5767 5766 5766 5765 5765 5764 5764 5764 5764 5763 5763 5762 5762 5761 5761
5770 5770 5771 5771 5772 5772 5776 5774 5774 5774 5774 5774 5773 5773 5772 5771 5770 5769 5768 5767 5766 5765 5764 5763 5762 5761 5760 5759 5759 5758 5757 5757 5757 5756 5756 5756 5756 5756 5755 5755 5755 5754 5753 5753
5763 5765 5765 5766 5765 5766 5769 5767 5767 5768 5768 5767 5766 5765 5765 5763 5763 5762 5760 5759 5758 5756 5755 5754 5753 5752 5751 5751 5750 5749 5749 5748 5748 5748 5747 5747 5746 5747 5747 5747 5746 5746 5745 5745
5758 5759 5760 5760 5760 5761 5763 5762 5761 5762 5761 5760 5759 5758 5757 5755 5755 5755 5753 5751 5750 5749 5747 5746 5745 5744 5743 5742 5741 5740 5740 5739 5738 5738 5738 5738 5738 5738 5738 5738 5738 5737 5737 5736
5752 5753 5753 5753 5753 5754 5756 5755 5755 5755 5754 5753 5751 5750 5749 5748 5747 5747 5745 5744 5742 5741 5740 5738 5737 5736 5734 5733 5732 5732 5731 5731 5730 5729 5729 5729 5729 5729 5729 5729 5729 5729 5728 5727
5746 5746 5747 5747 5747 5750 5749 5748 5748 5747 5746 5745 5744 5743 5742 5741 5740 5739 5738 5736 5735 5734 5732 5731 5729 5728 5726 5725 5724 5723 5723 5722 5722 5721 5721 5721 5721 5721 5720 5721 5720 5720 5719 5718
5739 5740 5740 5741 5743 5742 5740 5740 5740 5739 5738 5738 5737 5736 5734 5734 5733 5731 5730 5729 5728 5726 5725 5723 5722 5720 5719 5718 5716 5715 5715 5714 5713 5713 5713 5713 5713 5712 5712 5712 5711 5711 5710 5709
5732 5733 5734 5734 5734 5734 5733 5733 5732 5732 5731 5731 5729 5728 5727 5726 5725 5724 5723 5721 5720 5719 5717 5716 5714 5712 5711 5710 5709 5707 5706 5706 5706 5706 5706 5705 5705 5704 5704 5703 5702 5702 5701 5700
5726 5726 5726 5726 5726 5726 5726 5725 5725 5724 5724 5723 5722 5720 5719 5718 5717 5716 5715 5713 5712 5711 5709 5708 5706 5705 5704 5702 5701 5700 5699 5698 5698 5698 5698 5697 5697 5696 5695 5694 5693 5693 5692 5691
5718 5719 5719 5719 5719 5718 5718 5718 5717 5716 5716 5715 5714 5713 5712 5710 5709 5708 5707 5706 5704 5703 5701 5700 5699 5697 5696 5695 5693 5692 5691 5690 5690 5689 5689 5689 5688 5688 5687 5686 5685 5684 5683 5682